Location: Dampvalley
(47.9094°N, 6.1967°E)
Time: 03:24:28
(UTC+00:00)

N. Korean satellite - Pass Details

Date: 06 December 2022
Orbit: 407 x 444 km, 97.3° (Epoch: 28 January)

Event Time Altitude Azimuth Distance (km) Brightness Sun altitude
Rises 05:17:55 0° 8° (N) 2,513 10.1 -17.8°
Maximum altitude 05:23:26 54° 287° (WNW) 565 6.5 -16.9°
Drops below altitude 10° 05:26:46 10° 209° (SSW) 1,587 9.0 -16.4°
Sets 05:28:48 0° 205° (SSW) 2,445 10.0 -16.1°
